APSTAR 6C

Last updated on Nov. 18, 2019, 4:21 a.m. UTC

1 43450U 18041A   19320.95129618 -.00000309  00000-0  00000+0 0  9998
2 43450   0.0146 287.3878 0000597 104.8832 139.9233  1.00268671  5735
UTC
Height (km)
Latitude
Longitude
Inclination
Orbital Period
UTC large
Height (km)
Speed (km/s)
/
Latitude / Longitude
Inclination (degrees)
Orbital Period (minutes)
Azimuth
Elevation
Range (km)
Doppler Factor
iOS Compass Heading
iOS Angle

Next 30 passes for location: Hong Kong

Rise time Rise Azimuth (degrees) Set time Set Azimuth (degrees) Duration Max altitude (degrees)

No matching passes for this satellites